Regional Weather Roundup
Issued by NWS

Home | Current Version | Previous Version | Text Only | Print | Product List | Glossary Off
Versions: 1 2 3 4 5 6 7 8 9 10 11 12 13 14 15 16 17 18 19 20 21 22 23 24 25 26 27 28 29 30 31 32 33 34 35 36 37 38 39 40 41 42 43 44 45 46 47 48 49 50

000
ASUS43 KMKX 140210
RWRWI

WISCONSIN REGIONAL WEATHER ROUNDUP
NATIONAL WEATHER SERVICE MILWAUKEE/SULLIVAN WI
800 PM CST WED DEC 13 2017

NOTE: "FAIR" INDICATES FEW OR NO CLOUDS BELOW 12,000 FEET WITH NO
SIGNIFICANT WEATHER AND/OR OBSTRUCTIONS TO VISIBILITY.

WIZ001-002-006>008-014>016-023>028-140300-
NORTHWEST WISCONSIN

CITY           SKY/WX    TMP DP  RH WIND       PRES   REMARKS
SUPERIOR ARPT  CLOUDY    21  15  76 N8        29.91R WCI  11
ASHLAND        CLOUDY    20  11  68 NE7       29.90R WCI  11
HAYWARD        FLURRIES  20  14  77 N12G21    29.86R WCI   8
SIREN          FLURRIES  20  17  87 N5        29.89R WCI  13
CUMBERLAND     FLURRIES  18  12  79 N9        29.86R WCI   6
RICE LAKE      MOCLDY    16  13  88 CALM      29.88R
CHETEK           N/A     12  10  90 N3        29.87R
LADYSMITH      PTCLDY    13  10  87 N6        29.84R WCI   4
EAU CLAIRE     CLEAR     15  10  80 N5        29.86R WCI   8
MENOMONIE      CLEAR     17  12  80 NW8       29.87R WCI   7
NEW RICHMOND   CLEAR     15  10  81 NW6       29.89R WCI   7
OSCEOLA        CLEAR     18  15  87 N3        29.93R
$$

WIZ003>005-009-010-017-018-140300-
NORTH CENTRAL WISCONSIN

CITY           SKY/WX    TMP DP  RH WIND       PRES   REMARKS
MANITOWISH WTR FLURRIES  16  15  97 N3        29.77R
ARBOR VITAE    FLURRIES  17  14  89 N6        29.76R WCI   8
WOODRUFF       FLURRIES  17  14  89 N6        29.76R WCI   8
RHINELANDER    CLOUDY    14  11  87 NW3       29.75R
EAGLE RIVER    FLURRIES  16  12  84 N6        29.74R WCI   7
LAND O LAKES   FLURRIES  17  13  86 N13       29.76R WCI   3
PHILLIPS       CLOUDY    14  12  92 N5        29.78R WCI   6
TOMAHAWK       CLEAR     10   8  90 NW5       29.78R WCI   2
MEDFORD        CLEAR     11   8  87 N7        29.78R WCI   1
MERRILL        CLEAR     13  10  90 CALM      29.77R
$$

WIZ029-030-035-036-043>047-140300-
CENTRAL WISCONSIN

CITY           SKY/WX    TMP DP  RH WIND       PRES   REMARKS
WAUSAU         PTCLDY    16  12  84 NW5       29.76R WCI   9
MOSINEE        PTCLDY    16  12  86 N7        29.77R WCI   6
MARSHFIELD     PTCLDY    16  11  80 N7        29.77R WCI   6
STEVENS POINT  FLURRIES  15  13  91 N7        29.78R WCI   5
WAUPACA        CLOUDY    21  14  74 N8G16     29.78R WCI  11
WAUTOMA        FLURRIES  20  15  81 N10G20    29.77R WCI   9
WISC RAPIDS    PTCLDY    18  14  84 NE12      29.79R WCI   5
CAMP DOUGLAS   MOCLDY    18  14  86 NW10      29.79R WCI   6
$$

WIZ011>013-019>022-031-037>040-048>050-140300-
NORTHEAST WISCONSIN

CITY           SKY/WX    TMP DP  RH WIND       PRES   REMARKS
ANTIGO         FLURRIES  13  10  88 N6        29.74R WCI   4
SHAWANO        PTCLDY    18  12  77 N13G18    29.77R WCI   4
OCONTO         CLEAR     14   7  73 N8        29.77R WCI   3
STURGEON BAY   CLOUDY    17   9  70 N15       29.73R WCI   2
GREEN BAY      MIX PCPN  17  10  74 N25       29.75R WCI  -1
MANITOWOC      LGT SNOW  21  17  84 N17G24    29.68R FOG     WCI   7
APPLETON       CLOUDY    18  10  73 N24       29.70R WCI   0
CLINTONVILLE   NOT AVBL
OSHKOSH        CLOUDY    20  15  81 N22       29.72R HAZE    WCI   3
$$

WIZ032>034-041-042-053>061-140300-
SOUTHWEST WISCONSIN

CITY           SKY/WX    TMP DP  RH WIND       PRES   REMARKS
LA CROSSE      CLOUDY    23  14  68 N17       29.83R WCI   9
SPARTA         PTCLDY    19  14  82 N7        29.82R WCI  10
VIROQUA        CLOUDY    19  14  81 N13       29.76R WCI   7
BOSCOBEL       CLOUDY    24  14  65 N7        29.80R WCI  16
PRAIRIE DU CHI CLOUDY    25  13  62 NW14G22   29.80R WCI  13
PLATTEVILLE    CLOUDY    24  16  70 N12       29.75R WCI  13
$$

WIZ056-057-062-063-064-067-068-140300-
SOUTH CENTRAL WISCONSIN

CITY           SKY/WX    TMP DP  RH WIND       PRES   REMARKS
REEDSBURG      MIX PCPN  20  15  81 NW14G21   29.75R WCI   7
BARABOO/DELLS  PTCLDY    20  16  83 N14G20    29.74R WCI   7
LONE ROCK      CLOUDY    23  16  74 N15G23    29.77R WCI  10
MINERAL POINT  CLOUDY    25  18  74 NW17G25   29.73R WCI  11
MADISON        LGT SNOW  23  19  85 N15G25    29.70R FOG     WCI  10
MIDDLETON      CLOUDY    25  19  80 NW16      29.72R WCI  12
WATERTOWN      CLOUDY    25  23  92 N15G23    29.67R WCI  12
MONROE         CLOUDY    25  16  68 NW10G22   29.68R WCI  15
JANESVILLE     CLOUDY    27  19  74 NW16G25   29.66R WCI  14
$$

WIZ051-052-058>065-066-070>072-140300-
SOUTHEAST WISCONSIN

CITY           SKY/WX    TMP DP  RH WIND       PRES   REMARKS
MILWAUKEE      CLOUDY    29  21  72 N18G33    29.60R HAZE    WCI  16
WAUKESHA       CLOUDY    25  19  80 N12G18    29.62R WCI  14
MILWAUKEE/TIMM FLURRIES  27  19  74 N15G23    29.62R WCI  15
RACINE         MIX PCPN  28  21  75 N21G33    29.61R WCI  15
BURLINGTON     FLURRIES  26  24  91 N9        29.62R WCI  17
KENOSHA        LGT SNOW  29  23  78 N15G29    29.59R WCI  18
FOND DU LAC    LGT SNOW  22  17  81 N22G30    29.71R WCI   6
SHEBOYGAN      LGT SNOW  24  23  96 N14G22    29.65R VSB 3/4 WCI  12
WEST BEND      LGT SNOW  25  23  93 N9        29.64R WCI  15
JUNEAU         LGT SNOW  23  20  87 N18G28    29.69R WCI   9
$$

LSZ147-162-140300-
LAKE SUPERIOR

STATION/POSITION TIME  TEMP    WIND        PRES    WAVE
                       AIR SEA DIR/SP/G            HT/PER
                 (UTC) (F)     (DEG/KT/KT) (MB)    (FT/S)
DEVILS ISLAND    0200   21      20/ 14/ 17 1014.1R
SAXON HARBOR     0140   24                 1011.2R
$$

LMZ867-665-643>646-140300-
LAKE MICHIGAN

STATION/POSITION TIME  TEMP    WIND        PRES    WAVE
                       AIR SEA DIR/SP/G            HT/PER
                 (UTC) (F)     (DEG/KT/KT) (MB)    (FT/S)
NORTHPORT PIER   0148   19      20/ 14     1007.5R
KEWAUNEE LAKESHO 0148   20                 1004.7R
SHEBOYGAN LAKESH 0200   27      40/ 29/ 32 1004.3R
PORT WASHINGTON  0141   26      20/  9/ 17 1004.4R
MILWAUKEE LAKESH 0150   29      10/ 23/ 28   N/A
KENOSHA   LAKESH 0200   29     350/ 23/ 31 1002.0
$$

TC  - TEMPERATURE IN CELSIUS
VSB - VISIBILITY IN STATUTE MILES
WCI - WIND CHILL INDEX
HX  - HEAT INDEX





USA.gov is the U.S. government's official web portal to all federal, state and local government web resources and services.